Weather History for Muscle Shoals, AL

Change the Weather History Date:

Wednesday, December 21, 2011

  Actual Average Record
Temperature  
Mean Temperature 57 °F 42 °F  
Max Temperature 66 °F 51 °F 76 °F (2013)
Min Temperature 47 °F 33 °F 5 °F (1989)
Degree Days  
Heating Degree Days 8 23  
Month to date heating degree days 367 438  
Since 1 July heating degree days 891 1000  
Cooling Degree Days 0 0  
Month to date cooling degree days 0 0  
Year to date cooling degree days 2183 1871  
Growing Degree Days 6 (Base 50)    
Moisture  
Dew Point 51 °F    
Average Humidity 77    
Maximum Humidity 87    
Minimum Humidity 66    
Precipitation  
Precipitation 0.46 in 0.17 in 2.42 in (1990)
Month to date precipitation 3.25 4.10  
Year to date precipitation 58.00 51.62  
Snow  
Snow 0.00 in - - ()
Month to date snowfall T  
Since 1 July snowfall T  
Snow Depth 0.00 in    
Sea Level Pressure  
Sea Level Pressure 29.93 in    
Wind  
Wind Speed 7 mph (WSW)    
Max Wind Speed 20 mph    
Max Gust Speed 26 mph    
Visibility 10 miles    
Events Rain    
T = Trace of Precipitation, MM = Missing Value Source: NWS Daily Summary

Daily Weather History Graph

Daily Weather History Graph

Search for Another Location

Airport:

Trip Planner

Search our weather history database for the weather conditions in past years. The results will help you decide how hot, cold, wet, or windy it might be!

Date:

Astronomy

Dec. 21, 2011 Rise Set
Actual Time 6:53 AM CST 4:43 PM CST
Civil Twilight 6:25 AM CST 5:11 PM CST
Nautical Twilight 5:54 AM CST 5:42 PM CST
Astronomical Twilight 5:23 AM CST 6:13 PM CST
Moon 3:29 AM CST (12/21) 2:00 PM CST (12/21)
Length of Visible Light 10h 45m
Length of Day
9h 49m
Waning Crescent, 12% of the Moon is Illuminated
Dec 21
Waning Crescent
Dec 24
New
Jan 1
First Quarter
Jan 9
Full
Jan 16
Last Quarter

Hourly Weather History & Observations

Time (CST) Temp. Dew Point Humidity Pressure Visibility Wind Dir Wind Speed Gust Speed Precip Events Conditions
12:10 AM 64.4 °F 60.8 °F 88% 29.86 in 10.0 mi SSE 16.1 mph 21.9 mph N/A   Overcast
12:53 AM 64.9 °F 60.1 °F 84% 29.84 in 10.0 mi SSE 15.0 mph 21.9 mph 0.00 in Rain Light Rain
1:19 AM 64.4 °F 60.8 °F 88% 29.84 in 10.0 mi SSE 13.8 mph 23.0 mph 0.01 in Rain Light Rain
1:53 AM 64.9 °F 61.0 °F 87% 29.82 in 10.0 mi South 13.8 mph 24.2 mph 0.02 in   Overcast
2:53 AM 64.9 °F 61.0 °F 87% 29.82 in 10.0 mi South 15.0 mph - 0.00 in Rain Light Rain
3:53 AM 64.9 °F 61.0 °F 87% 29.83 in 6.0 mi West 8.1 mph - 0.12 in Rain Heavy Rain
3:59 AM 64.4 °F 60.8 °F 88% 29.84 in 4.0 mi West 11.5 mph - N/A Rain Heavy Rain
4:15 AM 64.4 °F 62.6 °F 94% 29.84 in 6.0 mi WSW 10.4 mph - N/A Rain Light Rain
4:33 AM 64.4 °F 60.8 °F 88% 29.85 in 10.0 mi West 13.8 mph - 0.27 in   Overcast
4:53 AM 64.0 °F 60.1 °F 87% 29.84 in 10.0 mi WSW 15.0 mph 24.2 mph 0.28 in   Overcast
5:53 AM 61.0 °F 57.0 °F 87% 29.88 in 10.0 mi West 19.6 mph 26.5 mph 0.04 in Rain Light Rain
6:53 AM 59.0 °F 55.9 °F 90% 29.91 in 10.0 mi West 12.7 mph - 0.00 in   Overcast
7:30 AM 57.2 °F 51.8 °F 82% 29.93 in 10.0 mi West 11.5 mph - N/A   Overcast
7:53 AM 55.9 °F 48.9 °F 77% 29.93 in 10.0 mi West 11.5 mph - N/A   Overcast
8:15 AM 55.4 °F 46.4 °F 72% 29.95 in 10.0 mi West 10.4 mph - N/A   Overcast
8:53 AM 55.9 °F 46.0 °F 69% 29.96 in 10.0 mi West 11.5 mph - N/A   Clear
9:53 AM 55.0 °F 46.0 °F 72% 29.98 in 10.0 mi WNW 10.4 mph - N/A   Clear
10:53 AM 54.0 °F 44.1 °F 69% 29.98 in 10.0 mi West 6.9 mph - N/A   Clear
11:53 AM 55.4 °F 44.6 °F 67% 29.97 in 10.0 mi WNW 6.9 mph - N/A   Clear
12:53 PM 55.4 °F 44.6 °F 67% 29.96 in 10.0 mi WNW 8.1 mph - N/A   Clear
1:53 PM 54.0 °F 43.0 °F 66% 29.96 in 10.0 mi WNW 8.1 mph - N/A   Clear
2:53 PM 54.0 °F 43.0 °F 66% 29.95 in 10.0 mi NW 4.6 mph - N/A   Clear
3:53 PM 53.1 °F 43.0 °F 69% 29.97 in 10.0 mi WNW 3.5 mph - N/A   Clear
4:53 PM 52.0 °F 44.1 °F 74% 29.97 in 10.0 mi Calm Calm - N/A   Clear
5:53 PM 50.0 °F 44.1 °F 80% 29.99 in 10.0 mi Calm Calm - N/A   Clear
6:53 PM 50.0 °F 44.1 °F 80% 30.02 in 10.0 mi WSW 3.5 mph - N/A   Clear
7:53 PM 48.9 °F 44.1 °F 83% 30.01 in 10.0 mi Calm Calm - N/A   Clear
8:53 PM 48.9 °F 44.1 °F 83% 30.02 in 10.0 mi Calm Calm - N/A   Clear
9:53 PM 48.0 °F 43.0 °F 83% 30.01 in 10.0 mi Calm Calm - N/A   Clear
10:53 PM 48.0 °F 44.1 °F 86% 30.03 in 10.0 mi Calm Calm - N/A   Clear
11:53 PM 48.0 °F 44.1 °F 86% 30.03 in 10.0 mi Calm Calm - N/A   Clear